TimeMDT,TemperatureF,Dew PointF,Humidity,Sea Level PressureIn,VisibilityMPH,Wind Direction,Wind SpeedMPH,Gust SpeedMPH,PrecipitationIn,Events,Conditions,WindDirDegrees,DateUTC
12:54 AM,37.0,17.1,44,30.10,10.0,NE,12.7,-,N/A,,Mostly Cloudy,50,2012-10-05 06:54:00
1:54 AM,35.1,17.1,48,30.08,10.0,ENE,4.6,-,N/A,,Partly Cloudy,70,2012-10-05 07:54:00
2:54 AM,34.0,17.1,50,30.09,10.0,East,9.2,-,N/A,,Clear,90,2012-10-05 08:54:00
3:54 AM,33.1,17.1,52,30.10,10.0,ENE,11.5,-,N/A,,Mostly Cloudy,60,2012-10-05 09:54:00
4:54 AM,30.0,17.1,59,30.12,10.0,ENE,10.4,-,N/A,,Clear,60,2012-10-05 10:54:00
5:54 AM,28.0,17.1,63,30.14,10.0,ENE,11.5,-,N/A,,Clear,60,2012-10-05 11:54:00
6:54 AM,26.1,18.0,71,30.19,10.0,ENE,10.4,-,N/A,,Clear,70,2012-10-05 12:54:00
7:54 AM,27.0,19.0,72,30.22,10.0,ENE,9.2,-,N/A,,Clear,70,2012-10-05 13:54:00
8:54 AM,30.9,19.9,64,30.22,10.0,ENE,10.4,-,N/A,,Clear,60,2012-10-05 14:54:00
9:54 AM,34.0,21.0,59,30.23,10.0,East,9.2,-,N/A,,Clear,100,2012-10-05 15:54:00
10:54 AM,36.0,19.9,52,30.23,10.0,East,8.1,-,N/A,,Clear,90,2012-10-05 16:54:00
11:54 AM,39.0,19.9,46,30.21,10.0,SE,6.9,-,N/A,,Clear,130,2012-10-05 17:54:00
12:54 PM,44.1,19.0,37,30.18,10.0,Calm,Calm,-,N/A,,Clear,0,2012-10-05 18:54:00
1:54 PM,46.0,16.0,30,30.15,10.0,Calm,Calm,-,N/A,,Clear,0,2012-10-05 19:54:00
2:54 PM,50.0,12.0,22,30.11,10.0,West,6.9,16.1,N/A,,Clear,280,2012-10-05 20:54:00
3:54 PM,51.1,10.9,20,30.08,10.0,West,8.1,-,N/A,,Clear,280,2012-10-05 21:54:00
4:54 PM,52.0,9.0,18,30.06,10.0,WSW,10.4,-,N/A,,Clear,250,2012-10-05 22:54:00
5:54 PM,52.0,3.0,14,30.06,10.0,West,23.0,29.9,N/A,,Clear,280,2012-10-05 23:54:00
6:54 PM,48.0,3.0,16,30.10,10.0,WNW,15.0,-,N/A,,Clear,290,2012-10-06 00:54:00
7:54 PM,42.1,6.1,23,30.16,10.0,NE,12.7,-,N/A,,Clear,40,2012-10-06 01:54:00
8:14 PM,37.4,17.6,45,30.16,10.0,ENE,13.8,-,N/A,,Clear,70,2012-10-06 02:14:00
8:54 PM,35.1,19.0,52,30.21,10.0,ENE,13.8,-,N/A,,Clear,60,2012-10-06 02:54:00
9:54 PM,32.0,21.0,64,30.23,10.0,ENE,16.1,24.2,N/A,,Clear,60,2012-10-06 03:54:00
10:54 PM,30.0,21.0,69,30.25,10.0,ENE,10.4,-,N/A,,Clear,60,2012-10-06 04:54:00
11:54 PM,28.9,21.0,72,30.25,10.0,ENE,15.0,-,N/A,,Clear,60,2012-10-06 05:54:00